Location: *
(32.8224°S, 174.7659°E)
Time: 04:03:56
(UTC+00:00)

Daily predictions for brighter satellites

Satellite Brightness Start Highest point End
(mag) Time Altitude Azimuth Time Altitude Azimuth Time Altitude Azimuth
ATLAS CENTAUR R/B 4.3 07:01:59 10° WNW 07:05:40 24° SW 07:09:30 10° S
Cosmos 1741 Rocket 4.0 07:00:42 10° N 07:05:51 62° ENE 07:11:05 10° SSE
Cosmos 1939 Rocket 3.0 07:03:49 10° SSE 07:07:59 60° E 07:12:03 10° N
Cosmos 2333 Rocket 3.9 07:04:42 10° SSE 07:08:19 17° ESE 07:11:56 10° E
Okean-O 3.4 07:07:09 10° SE 07:11:11 32° E 07:15:10 10° NNE
USA 229 DEB 4.2 07:03:53 10° N 07:11:15 49° ENE 07:18:26 10° SE
USA 229 4.2 07:04:00 10° N 07:11:21 48° ENE 07:18:31 10° SE
Cosmos 972 Rocket 4.2 07:06:52 10° S 07:11:44 48° ESE 07:16:28 10° NNE
Helios 1A Rocket 3.5 07:09:06 10° SSE 07:13:00 37° E 07:16:52 10° NNE
Cosmos 921 Rocket 3.8 07:11:39 10° S 07:15:27 32° ESE 07:19:14 10° NE
IRS-1C Rocket 4.1 07:14:06 10° SSE 07:19:23 65° ENE 07:24:36 10° N
Cosmos 1745 Rocket 4.5 07:15:06 10° NNE 07:20:57 40° E 07:26:50 10° SSE
Cosmos 1850 Rocket 4.1 07:16:05 10° NNW 07:21:26 87° WSW 07:26:50 10° SSE
Cosmos 1340 2.9 07:19:06 10° NNE 07:22:44 47° E 07:26:26 10° SSE
Cosmos 2315 Rocket 4.4 07:16:23 10° S 07:22:45 71° W 07:28:57 10° N
NOSS 3-1 (A) 4.4 07:17:22 10° N 07:25:58 52° ENE 07:33:54 10° SE
Cosmos 2360 Rocket 2.4 07:20:22 10° SSW 07:26:01 58° ESE 07:31:36 10° NNE
USA 267 3.4 07:21:09 10° SE 07:27:47 84° SW 07:34:22 10° NW
Cosmos 1607 4.4 07:22:50 10° SSW 07:28:35 42° ESE 07:33:40 13° NE
USA 281 3.2 07:22:23 10° SSE 07:29:02 81° ENE 07:35:37 10° NNW
COSMOS 2487 3.2 07:26:14 10° NNW 07:29:37 56° WSW 07:33:02 10° S
CZ-4 R/B 1.5 07:27:02 10° SSE 07:31:11 55° E 07:35:11 10° N
CZ-2C R/B 3.2 07:28:40 10° N 07:33:50 60° W 07:39:01 10° SSW
GOES 2 Rocket 4.4 07:29:08 10° W 07:36:23 51° NNW 07:40:48 16° ENE
CREW DRAGON DEMO-1 DEB 3.6 07:34:47 10° SSW 07:37:43 39° SE 07:39:21 21° E
IRIS 4.3 07:37:15 10° WNW 07:40:37 65° SSW 07:42:54 12° SE
Cosmos 2227 Rocket 4.0 07:43:13 12° E 07:43:13 12° E 07:44:10 10° ESE
NOSS 3-1 (C) 4.4 07:35:17 10° NNW 07:44:19 83° WSW 07:52:30 10° SSE
Cosmos 2219 Rocket 3.0 07:47:36 10° S 07:52:44 33° ESE 07:55:28 22° ENE
CZ-2C R/B 3.7 07:57:35 12° NNE 08:01:55 87° ESE 08:06:38 10° SSW
CZ-2C R/B 3.3 07:58:04 10° S 08:03:41 86° WSW 08:09:27 10° NNW
Cosmos 2151 4.0 08:04:24 26° E 08:04:24 26° E 08:07:46 10° SSE
Cosmos 1869 3.4 08:00:35 10° S 08:04:32 75° W 08:07:40 15° N
Cosmos 2322 Rocket 4.1 08:03:43 10° SW 08:08:29 28° WNW 08:13:15 10° NNW
Cosmos 468 Rocket 4.5 08:06:25 10° SSW 08:11:42 61° WNW 08:16:21 13° N
Cosmos 2058 3.4 08:10:28 10° NNW 08:14:34 60° W 08:18:46 10° S
Cosmos 1814 Rocket 4.3 08:12:29 10° S 08:17:32 46° ESE 08:18:57 37° ENE
YAOGAN 1 3.6 08:13:56 10° S 08:18:10 47° WSW 08:22:19 10° NNW
SL-8 R/B 3.6 08:15:06 10° NW 08:19:52 71° NE 08:23:16 19° ESE
Timation 2 Rocket 4.1 08:14:23 10° N 08:21:09 63° ENE 08:27:49 10° SSE
Cosmos 2297 Rocket 2.6 08:20:07 36° NE 08:21:10 39° ENE 08:26:25 10° SE
Abrixas rocket 4.2 08:20:50 10° W 08:22:45 17° NW 08:22:51 16° NW
Cosmos 1763 Rocket 4.2 08:18:11 10° SSW 08:23:25 53° WNW 08:27:31 16° N
HJ-1C 4.1 08:21:00 10° S 08:24:19 53° WSW 08:26:45 16° NNW
ARGOS 3.0 08:19:56 10° SSE 08:25:22 73° ENE 08:29:52 15° N
X-37B 1.8 08:22:59 10° WNW 08:26:03 42° SSW 08:27:04 31° SSE
Cosmos 2322 3.7 08:20:56 10° SSW 08:26:41 84° WNW 08:29:24 32° NNE
Cosmos 968 Rocket 3.6 08:26:44 46° ENE 08:27:16 47° ENE 08:32:12 10° SSE
Cosmos 405 2.8 08:25:15 10° S 08:28:49 86° W 08:28:55 83° NNW
Cosmos 1408 4.3 08:27:46 10° NNW 08:31:10 33° W 08:34:37 10° SSW
Cosmos 2221 3.6 08:34:01 10° SSW 08:38:08 42° W 08:40:39 21° NNW
Cosmos 1346 Rocket 4.4 08:35:21 10° NW 08:39:02 35° WSW 08:42:47 10° SSW
H-2A R/B 2.7 08:34:26 10° S 08:39:26 55° WSW 08:44:32 10° NNW
Ariane Rocket 3.5 08:37:21 10° SSE 08:41:24 43° ESE 08:41:24 43° ESE
CSL-04 Rocket 4.2 08:37:05 10° S 08:42:32 59° WSW 08:47:58 10° NNW
SL-23 DEB 4.4 08:41:38 10° SW 08:44:23 44° SSW 08:44:23 44° SSW
Cosmos 1825 3.6 08:43:05 19° NW 08:45:18 37° W 08:48:53 10° SSW
Cosmos 1570 Rocket 4.1 08:40:00 10° SSW 08:45:22 76° WNW 08:46:49 48° N
Cosmos 540 Rocket 3.7 08:40:35 10° SSW 08:45:46 67° WNW 08:47:17 44° NNW
Cosmos 1486 Rocket 3.8 08:44:09 44° N 08:45:52 80° ENE 08:51:10 10° SSE
Meteor 2-3 Rocket 4.3 08:46:37 41° ESE 08:46:37 41° ESE 08:51:24 10° SSE
BREEZE-M DEB (TANK) 3.4 08:42:04 10° WNW 08:46:24 52° WSW 08:46:24 52° WSW
SL-08 RB Rocket 3.7 08:43:36 10° S 08:48:13 81° WSW 08:49:00 60° NNW
Cosmos 2084 Rocket 3.6 08:44:10 10° SSW 08:47:57 66° S 08:47:57 66° S
Cosmos 841 Rocket 3.8 08:43:54 10° SSW 08:49:06 63° WNW 08:50:37 43° NNW
Orbus 7S? 4.0 08:46:00 10° SW 08:49:42 79° SE 08:50:30 64° ENE
Cosmos 2219 3.1 08:47:37 28° NNW 08:50:46 82° ENE 08:56:30 10° SSE
COSMOS 2428 2.7 08:45:51 10° SSW 08:51:37 85° WNW 08:52:46 59° N
Cosmos 2208 Rocket 4.0 08:47:02 10° SSW 08:52:23 80° WNW 08:53:09 64° N
Cosmos 2333 Rocket 2.6 08:47:17 10° SSW 08:53:00 62° WNW 08:54:48 42° NNW
SJ-6B 4.5 08:53:25 10° SSE 08:55:08 25° SSE 08:55:08 25° SSE
H-2A R/B 4.1 09:02:14 51° W 09:02:14 51° W 09:06:02 10° SSW
Cosmos 2237 Rocket 2.9 08:56:54 10° S 09:01:45 40° SE 09:01:45 40° SE
IRS-1A Rocket 4.2 09:05:49 10° SSE 09:11:48 88° ENE 09:12:02 83° N
Cosmos 1980 4.1 09:07:35 10° S 09:12:26 51° SE 09:12:26 51° SE
MOS 1 4.3 09:13:47 10° SSE 09:19:14 80° S 09:19:14 80° S
Cosmos 2227 Rocket 2.4 09:24:52 66° W 09:25:07 67° WSW 09:30:49 10° SSE
SL-16 R/B 4.0 09:23:50 10° S 09:26:49 21° SE 09:26:49 21° SE
Cosmos 2184 Rocket 4.0 09:29:09 80° S 09:29:09 80° S 09:35:12 10° S
Cosmos 2219 Rocket 3.7 09:31:46 10° SW 09:36:28 27° WNW 09:37:13 26° WNW
USA 234 3.4 09:40:50 65° SSE 09:40:50 65° SSE 09:47:06 10° SW
Cosmos 2074 Rocket 4.4 09:49:27 58° WSW 09:49:27 58° WSW 09:55:27 10° S
Resurs 01 Rocket 4.1 09:44:47 10° SSE 09:45:38 15° SSE 09:45:38 15° SSE
Cosmos 2297 Rocket 4.2 10:01:39 13° WNW 10:05:16 24° WSW 10:09:49 10° S
